Station MCYI3 - Michigan City Harbor Entrance Light, Michigan City, IN Image indicating link to RSS feed of recent meteorological observations for station MCYI3


Conditions at MCYI3 as of
(4:50 pm CDT)
2150 GMT on 07/20/2024:
     

Click on the graph icon in the table below to see a time series plot of the last five days of that observation.

5-day plot - Wind Direction Wind Direction (WDIR): E ( 80 deg true )
5-day plot - Wind Speed Wind Speed (WSPD): 4 kts
5-day plot - Wind Gust Wind Gust (GST): 4 kts
5-day plot - Atmospheric Pressure Atmospheric Pressure (PRES):30.07 in
5-day plot - Air Temperature Air Temperature (ATMP): 74.7 °F
5-day plot - Dew Point Dew Point (DEWP): 61.7 °F
5-day plot -  Wind Speed, Wind Gust and Atmospheric Pressure Combined plot of Wind Speed, Gust, and Air Pressure
Previous observations
TIME
(CDT)
5-day plot - Wind Direction
WDIR
 
5-day plot - Wind Speed
WSPD
kts
5-day plot - Wind Gust
GST
kts
5-day plot - Wave Height
WVHT
ft
5-day plot - Dominant Wave Period
DPD
sec
5-day plot - Average Wave Period
APD
sec
5-day plot - Mean Wave Direction
MWD
 
5-day plot - Atmospheric Pressure
PRES
in
5-day plot - Pressure Tendency
PTDY
in
5-day plot - Air Temperature
ATMP
°F
5-day plot - Water Temperature
WTMP
°F
5-day plot - Dew Point
DEWP
°F
5-day plot - Salinity
SAL
psu
5-day plot - Visibility
VIS
nmi
5-day plot - Tide (above MLLW)
TIDE
ft
2024-07-20 04:40 pm E 3 3----30.08- 74.1- 62.2---
2024-07-20 04:30 pm E 3 3----30.07- 73.4- 61.5---
2024-07-20 04:20 pm E 3 4----30.08- 73.0- 61.3---
2024-07-20 04:10 pm E 3 4----30.08- 73.0- 61.5---
2024-07-20 04:00 pm E 4 5----30.08-0.02 74.1- 61.7---
2024-07-20 03:50 pm E 4 4----30.08- 74.7- 62.2---
2024-07-20 03:40 pm E 4 4----30.09- 73.0- 62.4---
2024-07-20 03:30 pm E 4 4----30.09- 73.2- 62.6---
2024-07-20 03:20 pm E 5 5----30.09- 74.5- 62.8---
2024-07-20 03:10 pm E 3 4----30.09- 76.5- 63.3---
2024-07-20 03:00 pmENE 3 4----30.09-0.02 76.8- 63.1---
2024-07-20 02:50 pm E 4 4----30.09- 75.4- 63.1---
2024-07-20 02:40 pmENE 4 4----30.10- 75.7- 63.3---
2024-07-20 02:30 pm E 3 4----30.10- 75.6- 63.0---
2024-07-20 02:20 pm E 4 4----30.10- 74.8- 62.8---
2024-07-20 02:10 pm E 4 4----30.10- 75.0- 62.8---
2024-07-20 02:00 pmENE 3 4----30.10-0.02 75.6- 62.8---
2024-07-20 01:50 pm NE 4 5----30.10- 74.8- 62.2---
2024-07-20 01:40 pm NE 4 5----30.10- 76.1- 62.8---
2024-07-20 01:30 pm NE 3 4----30.10- 75.4- 62.2---
2024-07-20 01:20 pm NE 3 4----30.10- 74.8- 62.1---
2024-07-20 01:10 pm NE 3 4----30.10- 74.7- 61.7---
2024-07-20 01:00 pmNNE 4 4----30.10-0.02 74.8- 61.5---
2024-07-20 12:50 pmNNE 4 4----30.10- 75.0- 61.2---
2024-07-20 12:40 pm N 3 4----30.11- 75.0- 61.3---
2024-07-20 12:30 pm N 4 5----30.11- 74.7- 61.5---
2024-07-20 12:20 pm N 4 4----30.11- 74.7- 61.7---
2024-07-20 12:10 pm N 5 6----30.11- 74.5- 60.6---
2024-07-20 12:00 pm N 5 5----30.11-0.01 74.1- 61.0---
2024-07-20 11:50 am N 5 6----30.12- 73.8- 61.5---
2024-07-20 11:40 am N 5 6----30.12- 72.9- 62.1---
2024-07-20 11:30 amNNW 6 7----30.12- 71.8- 62.1---
2024-07-20 11:20 am N 4 5----30.12- 71.6- 62.2---
2024-07-20 11:10 am NW 5 6----30.13- 70.7- 64.0---
2024-07-20 11:00 am NW 6 6----30.12+0.00 70.3- 63.0---
2024-07-20 10:50 am NW 6 6----30.12- 70.2- 63.0---
2024-07-20 10:40 am NW 5 6----30.12- 70.2- 63.1---
2024-07-20 10:30 am NW 7 8----30.12- 70.0- 62.4---
2024-07-20 10:20 am NW 7 8----30.12- 70.0- 62.1---
2024-07-20 10:10 am NW 6 7----30.12- 70.0- 62.2---
2024-07-20 10:00 am NW 7 7----30.12+0.01 70.0- 61.7---
2024-07-20 09:50 am NW 7 7----30.12- 70.0- 60.8---
2024-07-20 09:40 am NW 6 6----30.13- 69.6- 61.5---
2024-07-20 09:30 am NW 5 6----30.12- 69.3- 60.3---
2024-07-20 09:20 am NW 7 7----30.12- 69.3- 59.4---
2024-07-20 09:10 am NW 6 6----30.12- 69.3- 58.6---
2024-07-20 09:00 amWNW 6 7----30.12+0.03 68.9- 58.1---
2024-07-20 08:50 am W 5 5----30.13- 68.7- 58.1---
2024-07-20 08:40 am W 5 5----30.13- 68.7- 57.0---
2024-07-20 08:30 am W 4 5----30.12- 68.4- 57.4---
2024-07-20 08:20 am W 5 6----30.12- 68.0- 57.4---
2024-07-20 08:10 am W 5 5----30.12- 68.0- 57.4---
2024-07-20 08:00 am W 4 5----30.11+0.03 68.0- 57.0---
2024-07-20 07:50 am W 5 6----30.11- 68.0- 55.9---
2024-07-20 07:40 am W 5 5----30.11- 67.3- 56.3---
2024-07-20 07:30 amWSW 3 5----30.11- 66.7- 56.7---
2024-07-20 07:20 am SW 4 5----30.11- 65.7- 56.8---
2024-07-20 07:10 am SW 5 6----30.11- 64.8- 57.2---
2024-07-20 07:00 am SW 5 6----30.11+0.03 64.4- 56.5---
2024-07-20 06:50 am SW 5 6----30.10- 64.0- 56.8---
2024-07-20 06:40 am SW 5 6----30.10- 64.0- 56.5---
2024-07-20 06:30 am SW 4 5----30.10- 63.3- 56.5---
2024-07-20 06:20 amWSW 3 4----30.09- 63.3- 56.3---
2024-07-20 06:10 amWSW 4 5----30.10- 63.3- 56.3---
2024-07-20 06:00 am SW 4 5----30.10+0.01 63.1- 57.0---
2024-07-20 05:50 amWSW 3 5----30.09- 63.3- 56.7---
2024-07-20 05:40 amWSW 4 4----30.09- 63.3- 57.0---
2024-07-20 05:30 amWSW 4 5----30.09- 63.3- 56.8---
2024-07-20 05:20 amWSW 3 4----30.09- 63.5- 56.8---
2024-07-20 05:10 amWSW 3 4----30.09- 63.9- 57.0---
2024-07-20 05:00 amWSW 3 4----30.09-0.01 63.5- 57.6---
2024-07-20 04:50 amWSW 4 4----30.09- 63.7- 56.5---
2024-07-20 04:40 amWSW 3 4----30.09- 63.9- 58.1---
2024-07-20 04:30 amWSW 2 2----30.08- 64.2- 57.6---
2024-07-20 04:20 amWSW 1 2----30.08- 63.9- 58.1---
2024-07-20 04:10 amWSW 2 3----30.08- 64.0- 57.4---
2024-07-20 04:00 amWSW 3 4----30.08-0.02 64.6- 56.8---
2024-07-20 03:50 amWSW 4 4----30.08- 63.9- 58.3---
2024-07-20 03:40 amWSW 2 3----30.09- 64.4- 57.7---
2024-07-20 03:30 amWSW 4 4----30.08- 64.8- 56.8---
2024-07-20 03:20 amWSW 3 4----30.08- 64.4- 57.7---
2024-07-20 03:10 amWSW 4 4----30.09- 64.2- 57.9---
2024-07-20 03:00 amWSW 3 3----30.09-0.01 64.6- 57.7---
2024-07-20 02:50 amWSW 3 4----30.09- 64.6- 58.1---
2024-07-20 02:40 amWSW 3 4----30.09- 64.4- 58.6---
2024-07-20 02:30 am SW 4 4----30.09- 65.1- 58.1---
2024-07-20 02:20 amWSW 3 4----30.10- 65.5- 57.6---
2024-07-20 02:10 amWSW 4 4----30.10- 64.8- 58.1---
2024-07-20 02:00 am SW 4 4----30.10+0.00 64.2- 59.5---
2024-07-20 01:50 am SW 3 4----30.10- 64.6- 59.5---
2024-07-20 01:40 amWSW 3 3----30.10- 64.8- 59.2---
2024-07-20 01:30 amWSW 3 3----30.11- 65.1- 59.0---
2024-07-20 01:20 amWSW 2 3----30.11- 65.3- 59.2---
2024-07-20 01:10 amWSW 3 4----30.10- 65.5- 57.7---
2024-07-20 01:00 amWSW 3 4----30.10+0.01 64.9- 58.8---
2024-07-20 12:50 am SW 4 6----30.10- 65.3- 59.0---
2024-07-20 12:40 am SW 4 5----30.10- 66.0- 58.8---
2024-07-20 12:30 amWSW 3 4----30.10- 66.0- 59.0---
2024-07-20 12:20 am SW 4 5----30.10- 65.5- 59.5---
2024-07-20 12:10 am SW 3 4----30.09- 65.7- 59.5---
2024-07-20 12:00 am SW 4 4----30.10+0.01 66.4- 59.4---
2024-07-19 11:50 pm SW 4 4----30.10- 66.6- 59.4---
2024-07-19 11:40 pmSSW 3 4----30.10- 66.6- 59.5---
2024-07-19 11:30 pmSSW 2 3----30.10- 67.3- 59.4---
2024-07-19 11:20 pm SW 3 4----30.11- 67.8- 58.1---
2024-07-19 11:10 pm SW 3 4----30.11- 68.0- 58.3---
2024-07-19 11:00 pm SW 2 3----30.10+0.02 68.0- 59.5---
2024-07-19 10:50 pmSSW 3 3----30.10- 68.4- 59.7---
2024-07-19 10:40 pm SW 3 3----30.10- 68.7- 57.6---
2024-07-19 10:30 pm SW 3 3----30.10- 68.5- 59.0---
2024-07-19 10:20 pm SW 3 3----30.10- 68.5- 58.6---
2024-07-19 10:10 pmWSW 2 3----30.10- 68.9- 59.0---
2024-07-19 10:00 pm SW 2 3----30.09+0.00 69.3- 57.0---
2024-07-19 09:50 pmSSW 2 2----30.09- 69.3- 57.2---
2024-07-19 09:40 pmSSW 3 3----30.09- 69.4- 56.5---
2024-07-19 09:30 pm S 1 2----30.09- 69.8- 57.0---
2024-07-19 09:20 pmSSW 3 4----30.09- 69.8- 55.0---
2024-07-19 09:10 pmSSE 2 2----30.09- 70.3- 55.2---
2024-07-19 09:00 pm SE 4 4----30.09-0.02 70.7- 54.5---
2024-07-19 08:50 pmSSE 3 4----30.09- 70.7- 54.5---
2024-07-19 08:40 pmSSE 4 4----30.09- 71.1- 55.4---
2024-07-19 08:30 pm SE 3 4----30.09- 71.2- 56.8---
2024-07-19 08:20 pm SE 4 4----30.09- 71.4- 56.3---
2024-07-19 08:10 pm SE 4 4----30.09- 71.8- 55.9---
2024-07-19 08:00 pm SE 4 4----30.09-0.03 71.8- 56.5---
2024-07-19 07:50 pm SE 3 4----30.09- 72.0- 55.4---
2024-07-19 07:40 pm SE 3 4----30.09- 72.1- 56.1---
2024-07-19 07:30 pmSSE 4 4----30.09- 72.1- 55.0---
2024-07-19 07:20 pmSSE 5 6----30.09- 72.5- 54.3---
2024-07-19 07:10 pm SE 4 5----30.09- 72.5- 54.1---
2024-07-19 07:00 pm SE 6 6----30.09-0.03 72.5- 53.1---
2024-07-19 06:50 pm SE 8 9----30.08- 72.0- 53.1---
2024-07-19 06:40 pm SE 8 9----30.09- 71.6- 54.9---
2024-07-19 06:30 pmESE 7 8----30.10- 71.8- 54.5---
2024-07-19 06:20 pmESE 8 8----30.10- 71.8- 54.1---
2024-07-19 06:10 pmESE 7 8----30.10- 72.0- 55.6---
2024-07-19 06:00 pmESE 7 8----30.10-0.03 72.0- 54.7---
2024-07-19 05:50 pmESE 7 7----30.10- 72.0- 55.4---
2024-07-19 05:40 pm E 7 8----30.10- 72.0- 55.6---
2024-07-19 05:30 pm E 7 7----30.11- 72.0- 55.2---
2024-07-19 05:20 pm E 6 7----30.11- 72.1- 54.5---
2024-07-19 05:10 pm E 6 7----30.11- 72.0- 56.5---
2024-07-19 05:00 pm E 7 8----30.11-0.04 71.8- 55.4---
2024-07-19 04:50 pm E 7 7----30.11- 71.6- 55.8---